Theta_e
323 326 326 326 327 328 329 330 329 328 327 326 326 327 330 333 335 336 336 335 333 330 328 329 329 327 327 328 328 328 328 328 329 328 328 327 327 326 326 325 324 324 324 325 325 325 326 326 326 326 326 325 324 323 323 323 323 322 322 322 322 322 322 321 320 319 318 318 318 317 317 316 316 316
322 325 325 324 324 326 328 329 329 328 327 327 326 328 330 331 332 333 333 334 331 328 328 329 328 328 328 328 328 328 328 328 327 327 326 325 325 325 324 324 324 324 325 325 326 326 326 326 326 326 326 326 325 324 323 323 324 324 324 323 323 323 324 323 323 322 320 320 320 320 320 319 319 318
321 324 325 324 323 324 326 329 329 328 328 328 328 329 331 331 330 329 330 332 332 328 328 328 327 328 329 329 329 329 328 327 326 325 324 324 324 324 324 324 324 325 325 326 326 326 326 326 325 325 325 325 325 325 324 323 323 324 324 324 324 324 324 324 325 324 324 323 322 322 322 322 321 320
320 323 325 326 325 323 324 327 329 328 328 328 329 330 331 330 329 329 328 330 332 328 326 327 327 327 329 329 328 328 327 326 324 324 324 324 324 324 324 324 324 325 325 325 326 326 326 325 325 325 325 325 325 325 325 324 324 323 323 324 324 324 324 324 324 324 325 325 325 324 324 323 323 322
319 321 324 326 327 326 324 325 327 329 328 329 329 330 330 329 328 328 327 328 329 328 326 325 326 326 326 327 327 326 325 325 325 325 325 325 325 324 324 324 325 325 325 325 325 325 325 325 325 325 325 325 325 325 326 325 325 324 324 323 323 323 324 324 323 323 323 324 324 325 325 324 323 323
321 318 321 324 326 327 326 324 324 327 328 329 329 329 330 329 327 327 327 327 327 327 325 324 325 325 325 325 325 325 325 326 326 326 326 326 326 326 326 326 326 326 325 325 325 325 324 324 324 325 325 325 325 325 325 325 325 325 324 324 324 324 324 323 323 323 322 322 322 323 323 323 323 323
330 322 318 319 323 326 327 325 323 323 325 326 329 329 329 329 327 326 327 327 326 325 324 323 324 326 326 325 325 326 326 326 326 326 327 327 327 327 327 327 327 327 327 326 326 325 325 324 324 324 324 325 325 325 325 325 325 325 325 325 325 324 324 323 323 323 322 322 321 321 321 321 322 322
338 331 323 318 319 322 325 325 324 323 322 322 326 329 329 328 328 327 327 327 326 324 323 323 324 325 326 326 326 327 327 327 327 328 328 329 329 329 329 329 329 329 329 328 328 328 328 327 326 325 325 325 325 325 325 325 325 325 325 325 325 325 325 324 324 323 323 322 321 321 321 321 321 322
340 338 332 324 319 319 321 322 323 323 322 321 323 326 329 328 328 328 328 327 326 324 323 323 324 324 325 325 326 328 329 330 330 331 331 331 331 330 330 331 331 331 330 330 330 330 330 329 329 329 328 327 327 327 327 326 326 326 326 326 326 326 326 326 326 325 324 324 323 322 321 321 321 321
340 340 338 333 326 320 318 318 319 321 322 322 322 324 326 327 327 328 329 329 327 326 324 323 324 325 325 326 328 329 330 331 333 333 332 332 331 330 330 331 332 331 330 329 329 328 328 328 328 329 330 330 330 329 329 329 328 328 327 327 327 327 327 327 326 326 326 326 325 324 323 321 321 320
339 340 340 339 335 328 322 319 317 318 321 322 322 323 325 326 326 326 327 329 329 328 326 324 324 326 328 329 331 331 332 332 334 334 332 332 330 329 327 328 329 328 327 326 326 326 326 326 326 326 327 329 329 329 329 329 329 329 329 328 328 328 328 327 327 327 327 327 326 324 323 322 321 321
339 340 340 340 339 336 331 326 322 318 319 321 322 323 324 325 326 325 325 328 330 329 328 327 326 327 329 331 333 333 334 334 335 335 333 331 328 327 325 325 326 326 325 325 325 325 324 324 324 324 325 325 326 326 326 327 328 329 329 329 329 329 328 328 328 328 328 327 325 323 322 322 321 321
339 339 340 340 340 340 338 336 332 324 319 320 322 322 323 324 325 325 324 327 330 330 329 328 327 327 329 331 333 334 335 335 336 335 333 329 327 326 325 325 326 326 325 325 324 323 321 321 321 322 323 323 323 324 325 325 326 327 328 328 329 329 329 329 328 328 327 325 324 322 322 322 322 322
339 339 340 340 340 341 341 341 341 333 322 318 320 321 321 323 324 324 324 326 329 330 329 328 328 329 330 332 334 335 336 336 335 335 332 328 327 327 326 326 326 326 324 324 323 321 318 319 320 321 321 322 323 323 325 325 325 326 326 327 327 327 327 327 326 325 324 323 323 323 323 322 322 321
339 338 339 340 341 342 342 343 344 339 328 320 318 320 321 321 323 324 324 326 329 330 330 329 330 331 331 334 335 336 336 335 334 333 330 327 327 328 328 328 329 327 324 322 322 322 320 320 320 320 320 322 323 323 324 324 324 325 325 325 325 325 325 324 324 323 323 323 322 322 322 321 321 320
340 338 339 340 341 342 344 344 344 343 335 324 319 319 321 321 323 323 323 326 329 331 331 332 333 333 334 335 336 336 334 333 332 330 328 327 328 328 329 330 331 329 323 320 323 325 325 323 322 321 321 322 323 323 323 323 324 324 324 324 324 324 323 323 322 322 322 322 321 321 321 320 320 320
340 339 339 340 341 343 345 345 345 345 341 329 321 321 322 322 323 323 324 325 327 330 333 333 334 335 335 336 335 334 333 332 331 329 327 327 328 329 329 330 329 327 322 323 326 327 326 325 325 324 323 323 323 322 322 323 323 323 323 323 323 322 322 322 322 322 321 321 321 321 321 320 321 320
340 339 338 340 341 344 346 347 346 346 344 335 324 322 324 324 323 324 325 326 327 329 332 333 333 335 336 336 334 333 333 332 330 328 327 327 329 330 329 327 325 323 322 325 327 327 326 326 325 325 324 323 322 321 321 322 322 322 321 321 319 318 318 318 318 319 319 320 320 320 319 319 319 318
341 339 340 341 343 345 347 348 347 347 347 340 328 322 324 326 324 323 325 326 327 329 331 333 335 336 336 335 333 331 331 330 328 327 327 328 329 329 328 326 325 325 326 326 327 327 326 326 325 325 324 322 320 319 319 318 318 318 317 316 314 313 312 311 311 312 312 313 313 313 312 312 311 310
341 341 342 343 344 347 348 349 349 347 347 344 334 325 325 327 325 325 327 328 327 329 333 336 336 336 335 333 330 328 327 326 326 326 327 329 330 329 329 328 328 327 327 326 326 326 326 325 324 324 322 320 316 315 314 313 312 311 310 309 309 308 307 306 306 306 306 306 306 306 305 305 304 305
343 342 343 344 346 348 349 349 350 348 347 346 339 329 326 327 327 328 329 330 331 332 335 337 337 336 334 331 328 326 325 325 325 326 328 331 331 330 328 328 327 327 326 326 326 325 325 324 323 322 320 316 313 313 312 310 308 306 305 304 304 304 304 304 304 304 303 303 303 303 303 302 302 303
344 344 344 345 347 349 350 350 350 348 347 346 340 331 327 328 330 329 329 332 334 335 336 337 337 335 332 328 326 325 325 325 324 326 330 331 330 329 328 327 327 326 326 325 324 323 321 321 320 320 318 316 314 314 313 309 305 303 302 302 302 302 303 303 303 303 303 302 302 302 302 302 303 304
344 345 345 346 348 350 350 350 349 348 347 346 341 332 327 330 333 331 329 332 335 336 336 337 335 333 329 326 325 325 324 324 325 328 329 328 327 327 327 326 326 325 324 324 322 319 319 319 319 319 319 318 316 312 310 307 304 302 302 302 303 303 302 303 303 302 302 303 303 305 305 305 306 308
344 345 346 347 348 350 350 349 349 346 345 344 339 329 325 329 332 330 329 333 336 336 336 335 333 329 327 325 325 324 324 326 328 328 326 324 325 326 326 325 324 323 323 322 319 316 317 318 318 317 317 317 315 312 309 306 302 302 303 302 303 303 302 302 302 301 302 303 304 306 308 309 310 311
344 346 346 347 349 350 350 349 348 345 342 340 333 323 321 325 328 329 331 335 336 336 335 334 329 326 325 325 324 325 325 327 327 324 322 322 323 324 324 324 323 322 321 320 317 315 315 316 316 316 314 313 313 312 310 307 304 304 304 303 302 302 302 303 303 304 304 305 306 307 308 310 311 312
345 346 347 348 350 351 351 349 346 342 338 333 326 322 323 327 330 333 335 336 336 336 334 330 326 324 324 324 325 325 326 325 323 322 321 321 320 319 319 320 319 319 319 318 316 314 314 313 314 313 312 311 311 311 311 309 308 307 306 304 303 304 305 307 309 309 309 309 309 310 310 310 311 311
345 347 349 351 352 352 350 346 343 340 334 328 325 325 327 331 334 336 336 336 335 334 330 326 323 322 323 324 326 326 324 323 322 321 321 319 318 317 317 316 316 316 317 316 314 313 313 311 310 310 310 310 310 310 310 310 309 308 306 305 306 307 309 311 312 312 311 311 311 311 312 312 312 312
347 349 351 352 353 352 347 343 342 338 331 327 327 327 329 332 335 336 336 336 334 330 327 324 322 323 324 325 325 324 322 322 321 320 319 318 317 317 316 316 316 316 315 314 314 313 311 310 308 307 307 307 308 309 309 309 308 308 308 307 308 310 311 311 312 311 311 311 312 313 313 313 313 313
350 351 353 353 353 350 345 343 342 337 330 328 329 327 329 333 336 336 336 335 332 330 327 324 322 323 324 325 324 323 322 322 321 319 318 318 317 316 316 316 316 315 314 314 312 311 309 307 306 305 304 304 306 308 309 308 308 308 307 308 309 311 312 312 311 311 311 312 312 312 312 312 312 312
352 353 353 353 351 347 344 344 343 337 331 329 328 327 330 334 336 336 335 334 331 329 326 323 323 324 325 324 323 322 322 321 320 318 318 317 317 316 316 316 316 315 314 312 310 308 306 305 304 304 303 303 305 307 307 308 307 307 307 309 311 312 312 312 311 311 311 311 311 310 311 312 312 311
353 353 352 351 348 346 344 343 341 336 331 327 327 328 331 334 335 335 334 332 329 327 324 324 325 325 324 323 323 322 321 320 319 318 318 317 317 316 316 316 316 315 313 311 308 305 304 303 303 302 302 302 303 303 304 305 306 307 309 311 313 312 312 312 312 312 311 310 310 312 313 314 313 313
353 351 350 348 346 345 343 342 339 335 330 327 326 329 332 334 335 334 332 329 326 325 325 326 326 325 324 323 323 322 321 319 319 318 317 317 317 317 316 316 315 314 313 311 307 303 302 302 302 301 301 301 301 301 303 305 307 309 312 313 312 312 312 312 312 312 311 309 309 311 313 313 313 313
351 348 347 346 344 343 342 340 338 333 329 328 329 331 333 335 334 332 329 326 325 325 326 326 325 324 323 323 323 322 320 319 319 318 318 317 317 316 316 315 314 313 312 310 306 303 301 301 301 300 300 301 301 303 304 306 309 311 312 312 312 311 312 312 312 311 310 309 309 310 311 311 312 311
349 347 345 343 343 342 340 339 336 332 329 329 331 332 333 333 331 329 327 325 325 326 326 325 324 324 324 323 322 321 320 319 319 318 318 318 317 316 316 315 313 312 310 309 307 303 301 300 300 300 300 301 302 303 305 307 309 311 311 312 312 312 312 312 312 311 310 309 310 311 311 311 310 310
347 344 343 342 341 340 339 337 334 331 330 330 330 330 330 330 329 327 326 325 326 327 326 325 324 324 324 323 322 321 320 320 319 319 319 317 316 316 315 314 312 311 310 308 307 304 302 300 301 302 304 306 306 306 306 307 307 308 310 311 312 312 312 312 311 311 311 311 310 311 311 310 310 309
345 343 342 341 340 339 336 333 329 328 330 330 328 328 328 327 326 326 325 325 326 327 326 324 324 324 323 322 322 321 320 320 319 319 318 317 316 315 314 312 311 309 309 307 305 303 301 301 302 305 307 308 309 309 310 309 307 305 307 309 311 312 311 311 311 312 312 312 310 310 310 310 309 309
343 342 341 340 339 336 331 327 325 326 328 328 327 326 326 325 325 325 325 326 327 326 325 324 324 324 323 322 321 321 320 319 319 318 317 316 316 315 313 311 310 309 308 306 303 301 299 300 303 306 308 308 308 309 310 311 310 307 306 308 310 312 311 311 311 312 312 311 310 309 309 309 308 309
342 341 340 338 335 331 326 323 324 326 328 328 326 325 325 325 325 326 326 326 326 325 324 325 325 324 323 322 321 320 320 319 318 317 316 315 315 313 311 309 309 309 307 304 302 300 300 301 304 307 308 308 308 309 310 311 311 308 306 307 311 312 311 311 312 311 311 311 310 309 308 308 308 308
340 339 338 336 331 326 323 324 326 328 329 328 326 325 325 326 326 326 326 325 324 324 324 325 324 324 323 322 321 321 320 319 317 316 315 314 313 311 309 309 308 307 305 303 302 302 302 304 307 307 306 306 307 308 308 309 309 307 306 308 311 312 311 311 311 311 311 310 309 309 309 308 308 307
338 338 337 332 326 323 325 327 328 329 329 328 326 325 325 326 326 325 324 323 323 323 324 325 325 324 322 322 321 320 319 317 316 315 314 312 310 309 308 307 305 304 302 301 302 303 304 305 306 304 303 304 305 306 307 308 309 309 309 311 312 312 312 311 311 311 310 309 308 308 308 308 307 307
339 338 334 328 324 324 327 329 330 330 329 327 326 326 326 326 325 323 322 322 323 324 325 325 325 323 323 323 322 319 316 316 316 314 312 310 308 307 305 303 302 302 302 301 302 303 304 303 302 301 302 304 305 307 309 311 311 311 311 312 312 312 312 311 311 310 310 309 308 307 307 307 306 306
339 335 330 326 326 327 328 329 330 330 328 326 326 326 326 325 323 322 322 323 324 325 325 324 324 324 324 323 320 317 316 315 314 312 309 308 308 307 305 303 303 303 302 301 301 301 300 300 300 301 303 304 306 308 311 311 311 311 312 313 313 312 311 310 310 309 309 308 307 307 306 306 305 305
336 331 327 327 328 329 329 330 330 329 327 325 324 324 323 323 322 322 323 323 323 323 323 323 323 323 322 320 318 317 315 314 311 309 308 308 308 307 307 306 304 302 301 300 299 298 298 300 302 302 303 306 309 310 311 311 310 310 312 313 313 312 311 311 309 308 307 307 307 306 306 305 304 304
330 328 329 330 329 329 330 330 329 326 324 323 321 321 321 322 322 322 322 322 321 321 321 320 320 320 319 317 317 316 313 311 309 308 308 307 307 307 307 306 303 301 300 299 298 298 300 302 303 303 304 307 309 310 311 310 309 309 310 312 312 312 312 310 308 307 307 308 307 306 305 305 304 304
329 329 330 329 329 330 330 328 326 325 323 321 320 321 321 321 321 321 320 319 318 317 317 318 318 318 317 316 315 313 310 309 308 307 307 307 307 307 306 305 304 302 300 299 298 300 301 303 305 306 306 307 309 311 311 310 310 310 311 312 312 311 310 309 308 308 308 308 307 306 305 304 304 304
Wind_Speed
13 12 12 11 11 10 10 9 8 8 9 9 9 9 10 10 8 7 8 9 9 9 9 8 9 9 9 9 10 10 10 9 9 10 11 11 11 11 13 13 12 11 11 11 11 11 11 12 12 12 12 11 11 10 10 9 9 9 9 9 9 9 9 10 10 11 11 11 10 11 11 11 12 13
13 13 13 12 12 12 11 10 9 9 9 10 10 9 9 10 10 9 9 9 9 8 8 7 8 9 8 9 9 10 10 10 10 11 12 12 12 12 12 12 12 11 11 11 11 12 12 12 12 13 13 13 13 13 12 11 10 9 9 10 10 10 10 10 11 10 10 10 10 10 10 11 11 12
14 13 13 13 13 13 12 11 11 10 10 10 11 10 10 10 10 10 10 9 9 8 7 8 8 8 8 9 9 10 10 10 11 11 12 12 12 12 12 12 11 11 11 11 11 12 12 13 13 13 13 14 14 14 14 13 13 12 12 12 13 13 13 13 13 13 12 12 12 12 12 13 13 13
15 15 15 14 14 14 14 13 12 12 11 11 11 11 11 11 11 10 10 10 10 10 9 9 9 8 9 10 10 11 11 11 11 11 11 11 11 12 12 12 12 11 12 11 11 12 12 13 14 14 14 14 14 15 15 15 15 15 15 15 15 16 16 16 16 16 16 16 15 15 15 15 15 15
17 17 16 16 15 15 15 15 14 13 13 12 13 13 13 13 13 12 11 12 12 12 10 9 9 10 10 11 11 11 12 12 12 11 11 11 11 12 13 13 13 12 12 12 13 14 14 15 15 15 15 15 15 16 16 16 16 16 17 17 17 17 18 18 18 18 19 19 19 19 19 19 18 17
17 18 18 18 17 17 16 16 16 15 15 15 15 15 14 14 14 13 13 13 13 13 11 9 9 10 10 10 10 11 12 12 12 12 12 12 12 12 13 14 14 13 13 14 15 16 17 17 17 17 17 17 17 17 17 17 17 18 18 19 19 20 20 20 20 20 21 21 21 21 21 21 21 20
17 18 19 19 19 18 18 18 17 17 17 17 17 17 16 15 14 14 14 14 13 13 12 11 9 9 10 10 10 10 11 12 12 12 12 12 12 12 13 14 15 15 15 16 18 19 20 20 20 20 19 19 19 19 19 19 19 19 20 20 21 21 21 21 21 21 21 22 22 23 23 23 23 22
18 19 20 20 20 20 20 19 19 19 19 18 18 18 18 17 16 15 15 14 14 13 14 12 10 9 10 10 10 10 11 11 11 11 10 10 10 11 12 13 14 14 15 16 17 19 19 20 20 21 22 22 22 22 22 22 22 22 21 22 22 22 22 22 22 22 23 23 23 24 25 25 25 25
20 19 20 20 20 20 21 21 21 21 20 19 19 19 19 18 17 16 16 15 15 14 15 14 12 11 11 10 9 10 10 10 10 10 9 9 10 11 11 12 13 13 14 16 17 18 19 19 20 21 22 23 24 24 24 24 24 23 23 24 25 24 23 23 24 24 24 25 25 26 26 26 27 27
22 21 21 20 21 21 22 22 22 22 21 20 20 20 19 18 18 18 17 17 16 15 15 14 13 12 12 11 11 10 10 10 10 10 11 11 11 12 13 14 15 15 16 18 19 20 20 20 20 21 22 23 24 24 25 25 26 26 25 25 26 25 25 25 26 26 25 26 27 28 28 28 28 28
24 23 22 22 22 22 22 22 22 22 22 21 20 20 19 18 19 19 19 18 17 16 16 15 14 13 12 13 12 11 11 11 11 11 13 14 13 13 15 16 17 18 19 19 19 19 18 19 20 21 22 23 23 23 23 24 25 26 25 25 25 25 26 26 27 27 27 27 28 28 28 28 28 29
26 25 25 24 24 23 23 22 22 22 21 21 21 20 19 19 19 20 21 20 19 17 16 16 16 15 14 14 13 12 12 11 12 13 14 15 15 15 16 18 19 19 18 18 18 18 18 19 20 21 22 23 23 23 23 23 23 24 25 25 25 26 27 28 28 29 29 28 27 27 26 27 28 28
28 27 27 27 26 25 23 21 21 20 20 21 21 21 21 20 20 21 21 22 21 19 18 17 17 16 16 16 14 13 13 12 13 14 15 15 16 17 19 21 21 20 18 18 20 20 21 23 24 23 23 23 24 24 23 22 22 22 23 24 25 26 27 28 28 28 27 26 26 26 26 27 27 28
29 29 30 29 28 26 24 22 21 19 19 20 21 21 21 21 22 22 22 22 22 21 19 19 18 18 18 17 14 14 14 14 15 15 15 15 15 17 20 21 21 21 20 20 22 23 23 24 25 24 23 23 23 22 21 20 20 21 21 22 22 23 24 24 25 25 25 25 25 26 26 26 27 27
29 30 31 30 29 27 26 24 22 20 19 20 21 22 22 22 23 23 23 23 23 21 20 19 19 19 18 16 15 15 16 16 16 15 14 15 16 17 19 19 18 20 22 23 24 26 24 23 24 24 24 22 21 21 20 20 20 20 20 21 21 21 22 22 22 22 23 23 24 24 24 25 25 25
30 31 31 31 30 30 27 25 23 21 20 20 21 22 22 22 23 24 25 24 23 21 20 19 19 19 18 16 15 15 15 16 15 15 15 16 16 17 18 17 14 17 23 25 23 22 20 20 20 22 22 21 20 21 21 21 21 20 19 20 20 20 21 21 20 21 21 21 22 23 23 24 24 25
31 31 31 31 31 31 28 25 24 23 22 21 21 22 23 23 23 24 25 25 24 22 21 21 21 20 20 18 16 15 15 16 16 16 16 16 17 17 17 16 15 18 24 23 19 16 16 16 17 19 20 21 21 22 22 21 21 20 20 20 20 21 21 21 21 21 22 22 23 24 25 26 27 27
31 31 32 32 32 31 28 25 25 24 23 23 23 24 24 24 24 24 25 25 24 23 22 22 22 22 20 18 17 15 15 15 16 16 17 17 18 18 18 20 22 22 22 18 15 15 14 14 16 18 18 19 21 23 23 22 21 21 22 23 23 23 23 23 24 24 25 26 26 27 28 28 29 30
31 32 32 33 33 32 27 24 24 23 23 24 24 24 25 24 24 24 24 24 24 23 23 22 22 21 19 17 16 15 14 15 16 16 17 18 19 20 19 19 19 17 16 15 15 15 14 12 15 16 16 19 22 24 24 24 23 23 24 24 25 25 25 24 24 24 25 26 26 27 28 28 29 30
31 32 33 34 35 32 27 23 22 22 23 24 24 24 24 24 24 25 24 24 23 22 22 21 20 19 17 16 15 14 14 15 15 16 18 19 19 18 15 13 12 12 13 15 15 15 14 12 13 15 17 21 25 25 24 25 26 26 25 25 24 23 22 22 22 21 22 22 22 23 23 23 24 25
32 33 34 35 36 32 27 23 22 23 23 23 24 25 24 24 25 25 25 24 22 21 21 20 19 16 15 14 14 14 14 15 15 16 18 17 14 13 12 11 12 11 12 13 14 13 13 13 14 17 20 23 26 25 25 26 26 26 25 23 21 20 20 20 20 20 21 21 21 21 21 21 22 23
33 34 35 36 36 32 26 23 23 23 23 23 24 26 26 24 24 25 25 24 23 22 21 20 18 16 14 13 13 14 14 15 16 17 17 14 10 11 12 12 12 12 11 12 14 14 14 15 16 19 21 23 24 24 25 28 27 25 24 23 22 21 21 21 21 21 21 21 20 20 20 19 19 21
34 35 37 37 35 32 26 23 23 23 23 24 25 26 26 24 21 23 25 24 22 21 21 20 17 15 14 14 13 13 14 15 16 17 17 13 10 10 10 10 12 12 11 13 15 14 15 15 16 18 19 20 22 23 25 28 28 25 24 25 25 25 24 24 23 21 20 19 18 18 18 17 17 19
36 37 38 38 35 31 26 24 23 22 23 24 25 26 26 23 20 22 23 22 21 20 20 18 15 14 14 14 14 14 14 16 17 17 16 14 11 10 9 9 11 12 11 12 14 14 14 16 17 17 18 19 22 24 25 27 27 26 26 27 27 27 27 26 24 23 21 19 18 17 16 15 16 19
37 37 38 37 32 28 25 24 24 23 23 24 25 25 24 22 20 21 22 21 20 20 19 16 14 14 15 14 14 14 15 16 16 16 15 13 11 9 7 8 10 9 9 12 14 15 17 18 17 17 18 19 20 22 24 26 27 27 27 29 28 27 25 24 23 22 21 20 19 18 17 17 17 19
37 37 37 33 28 26 25 24 24 22 22 24 25 23 21 20 20 20 20 20 20 20 18 15 14 15 15 14 14 15 15 16 15 13 12 11 10 8 7 8 8 7 8 12 15 17 19 19 19 18 18 19 20 21 23 25 25 26 27 28 27 25 24 22 22 22 22 22 22 21 21 20 20 21
36 36 34 29 25 24 24 24 23 21 22 25 24 21 20 21 21 21 20 21 20 18 16 14 14 15 16 14 14 15 15 14 12 11 10 9 8 8 7 8 8 9 10 13 16 18 19 21 21 20 19 19 20 22 22 23 24 25 27 27 24 22 21 21 22 23 24 25 26 26 25 25 24 24
35 34 31 26 23 22 22 24 22 21 23 25 23 21 21 22 22 22 22 22 20 17 14 14 16 16 15 14 15 15 14 12 11 10 9 8 7 7 7 8 9 11 13 15 17 19 20 20 20 20 20 21 21 22 22 23 24 25 25 25 22 20 20 21 22 25 26 27 28 28 29 29 28 28
35 32 27 23 21 22 24 25 23 23 25 25 23 22 23 23 23 23 22 22 19 16 14 15 17 16 15 15 16 14 12 11 10 9 8 6 6 7 7 9 11 13 14 16 18 19 19 18 18 19 20 21 21 21 21 23 25 24 23 23 22 21 20 21 23 26 27 27 28 28 29 29 29 29
34 30 27 25 24 26 28 28 26 24 25 24 23 22 22 22 22 22 22 20 17 15 15 16 17 17 17 16 14 13 11 10 9 8 7 6 7 7 8 9 12 14 16 17 18 18 17 17 17 18 19 20 20 21 21 23 24 24 22 21 21 21 21 21 23 25 26 28 30 31 30 29 29 30
34 31 30 28 28 29 29 27 25 24 24 24 24 23 22 21 22 22 21 18 16 15 15 16 17 18 16 14 13 12 11 10 9 8 7 7 7 8 9 11 13 15 16 18 18 16 16 16 16 17 18 19 21 22 22 21 22 23 21 19 18 21 22 22 22 23 26 30 31 28 25 24 26 29
36 34 34 33 32 32 31 29 27 26 25 25 24 24 23 22 22 21 19 17 16 15 16 17 18 17 15 14 13 11 11 11 10 9 8 7 8 9 11 12 13 14 15 17 17 16 15 16 16 16 17 19 21 21 20 21 21 20 19 18 18 19 20 19 21 23 27 30 30 27 24 24 25 28
39 38 39 39 38 35 34 33 31 29 28 27 26 25 23 22 21 21 19 18 17 17 17 18 18 16 14 14 13 12 12 11 11 10 9 9 9 10 12 13 14 14 15 15 15 15 15 15 15 17 17 18 18 17 18 20 20 18 17 18 19 19 18 19 22 25 28 31 31 29 29 27 27 30
42 43 43 42 40 39 36 34 33 32 31 30 29 28 26 24 22 21 19 18 17 17 18 18 17 15 14 14 13 12 13 12 11 11 11 10 10 12 13 14 13 13 14 14 14 15 15 15 16 17 17 17 16 15 14 16 18 18 18 18 18 18 19 21 24 27 30 32 31 30 32 34 35 38
47 48 47 44 41 39 37 34 33 33 32 32 32 31 27 24 23 21 20 19 18 19 19 18 17 16 14 14 13 12 13 13 12 12 11 11 11 13 14 13 12 12 13 13 14 15 16 15 15 16 16 15 16 15 14 14 16 19 20 19 18 19 21 23 26 28 29 31 33 34 35 37 40 41
54 51 47 44 41 39 36 34 32 32 32 32 31 29 26 24 23 22 20 20 20 20 20 19 17 16 14 13 13 13 13 13 13 12 11 11 13 14 14 13 12 12 13 13 13 14 15 15 14 13 13 13 13 14 14 16 18 21 23 22 21 21 22 25 28 27 25 29 35 36 35 39 42 39
52 49 44 43 42 38 35 34 32 31 31 30 28 26 24 23 22 22 21 20 21 21 20 18 16 15 14 14 13 13 13 13 13 12 12 13 14 14 12 11 11 11 12 13 14 14 15 14 12 11 11 12 13 14 13 15 18 22 24 24 22 21 23 26 28 28 29 33 38 39 40 44 43 36
47 46 44 43 41 37 35 34 33 32 30 28 26 24 23 22 22 22 21 21 22 21 20 19 17 16 16 15 14 14 14 13 13 13 13 13 13 12 11 9 9 10 12 13 13 14 14 13 11 10 11 12 14 15 16 17 20 22 23 22 20 20 22 26 28 30 33 36 38 41 45 44 38 33
45 43 41 39 37 37 35 34 33 31 28 26 25 24 24 23 23 23 22 22 22 21 19 19 18 17 17 16 16 16 16 15 14 13 12 12 12 11 9 9 9 10 11 12 13 13 13 11 10 11 12 13 14 16 19 22 24 24 23 20 18 18 21 25 29 32 34 37 39 40 40 37 32 33
40 37 36 34 34 36 35 32 31 29 27 26 25 24 24 25 24 24 23 22 21 19 18 19 19 18 18 18 17 17 16 14 13 12 11 11 10 9 9 9 9 10 10 12 13 13 12 11 11 12 13 14 15 18 20 22 23 23 22 20 19 19 21 24 29 32 33 36 39 39 36 33 31 30
39 37 37 36 35 35 33 31 31 30 27 25 24 24 25 25 23 22 21 19 18 17 18 19 19 18 18 19 18 17 15 13 13 12 11 10 9 9 9 9 8 9 10 12 13 13 13 13 13 13 12 13 15 17 18 19 20 21 21 20 19 21 23 26 28 30 32 35 39 40 39 36 34 33
38 37 37 36 33 32 31 30 30 28 25 24 24 25 25 24 22 20 19 18 18 18 18 18 18 18 18 19 17 16 14 13 13 12 10 9 8 7 7 7 6 7 10 12 14 14 15 15 13 12 12 13 15 16 16 17 20 22 22 20 19 22 26 28 29 30 31 34 37 38 38 37 36 37
37 36 36 34 31 30 30 29 28 26 24 25 25 25 24 23 22 21 21 20 19 19 19 19 19 18 18 18 16 15 14 13 12 11 9 9 8 6 5 6 7 9 11 14 15 16 16 15 13 12 12 12 13 15 16 18 21 22 22 21 21 22 24 27 30 32 33 35 37 37 37 36 36 38
36 35 35 33 31 30 29 27 26 25 24 25 25 24 24 23 22 21 20 19 19 19 19 19 19 18 18 17 16 16 15 12 11 10 10 9 8 7 6 7 9 11 12 14 16 16 15 14 13 13 12 12 12 14 16 19 22 22 21 21 21 21 23 27 31 33 34 34 35 37 38 37 37 39
33 32 32 31 29 29 27 26 26 25 24 24 24 23 23 21 20 19 18 17 18 18 18 18 18 18 18 17 16 15 13 11 10 10 10 9 8 7 7 8 9 11 12 14 16 16 15 14 12 12 12 12 12 13 15 19 21 21 20 20 20 22 25 29 30 32 33 33 33 36 40 39 38 39
Wind_Direction
250 251 250 248 245 244 242 246 255 256 253 250 247 247 243 240 241 246 256 263 266 275 276 270 271 271 264 264 266 268 272 274 276 279 281 282 281 278 277 281 286 291 293 294 294 293 291 290 291 292 292 295 298 302 305 305 299 292 286 282 281 283 286 287 286 283 279 276 273 270 268 267 266 266
250 252 253 251 247 244 242 242 246 250 251 251 250 249 245 241 242 245 253 262 264 270 273 266 267 272 266 263 268 272 277 281 285 286 286 285 285 282 282 287 293 297 298 297 295 294 292 290 288 287 285 285 286 288 291 292 290 285 281 279 278 280 283 286 286 284 281 278 276 276 275 273 271 268
247 251 254 254 251 249 245 242 242 247 249 248 249 250 245 240 243 247 250 256 262 266 269 268 269 270 266 264 268 274 279 283 285 285 284 285 285 286 290 294 298 301 302 299 295 292 291 289 288 286 285 283 281 281 281 282 282 281 279 279 279 281 283 284 285 284 282 280 278 278 278 279 277 275
244 247 251 254 255 254 250 244 242 245 248 249 250 249 247 245 246 249 250 253 262 270 270 269 270 266 263 266 272 277 281 284 285 284 283 284 285 288 292 295 297 300 301 299 296 292 290 289 289 288 288 287 286 283 280 278 278 278 278 277 278 280 281 281 283 283 283 281 280 279 279 279 279 278
245 245 247 251 254 255 255 250 245 243 244 247 249 249 250 252 252 253 255 258 265 270 270 265 264 262 262 268 274 278 281 284 285 284 283 283 285 287 290 292 292 293 293 293 293 293 292 291 290 289 288 288 287 285 282 278 276 276 277 278 278 279 279 280 281 282 282 282 281 280 281 281 281 280
249 247 246 247 249 252 255 255 251 247 244 244 247 248 250 253 256 256 257 260 263 267 268 261 259 260 262 265 267 270 273 275 277 277 278 279 279 281 284 286 286 285 285 285 286 287 289 289 289 288 286 284 283 282 281 279 278 277 277 278 279 279 279 280 281 282 283 283 283 283 283 283 283 281
252 251 248 247 246 247 251 255 256 253 249 245 244 247 250 252 254 254 255 257 259 264 267 262 256 257 257 257 258 261 263 264 267 269 271 274 277 280 280 281 282 283 281 280 281 282 284 284 285 284 282 280 278 278 278 279 279 279 278 278 278 279 278 278 278 280 281 283 284 284 284 284 284 281
251 251 250 249 247 246 248 251 254 254 253 250 246 246 249 251 252 252 252 254 255 259 261 260 258 256 254 251 250 253 257 259 263 267 270 274 276 278 279 279 282 283 281 281 282 283 284 283 282 280 278 277 277 277 276 276 276 276 276 277 275 275 276 276 277 278 279 281 282 282 283 283 283 282
250 250 250 249 248 246 246 248 250 252 252 252 248 245 247 250 250 249 249 250 250 251 253 255 258 259 256 252 248 251 259 263 267 273 276 277 278 280 282 284 286 289 291 292 292 292 291 288 285 281 279 278 278 277 275 274 273 273 272 272 272 273 273 275 276 277 279 280 280 280 280 280 281 281
248 248 248 248 247 245 244 245 247 249 250 250 247 244 245 247 249 248 247 247 246 247 250 252 253 253 253 250 248 249 256 264 272 279 280 280 283 290 294 296 298 300 301 301 300 299 297 294 291 288 285 283 280 278 277 275 274 274 271 269 271 272 272 273 276 278 280 281 280 278 277 277 278 279
246 248 248 247 246 245 244 244 244 245 245 246 246 244 242 242 245 246 245 244 243 245 247 249 249 246 243 245 247 247 252 262 273 280 282 283 288 296 301 302 304 305 305 305 304 303 302 299 297 295 292 290 288 285 281 278 276 274 271 269 270 272 272 274 275 278 280 281 280 277 275 275 276 276
244 246 247 247 246 246 245 244 243 242 241 242 244 242 239 238 241 243 243 241 240 243 244 245 247 245 242 244 247 250 256 265 274 277 279 285 294 302 306 306 306 307 309 310 309 310 311 308 303 300 297 295 293 291 290 287 282 276 272 270 271 272 273 275 276 278 280 281 280 278 277 276 276 275
241 244 245 246 246 246 246 246 245 243 240 239 241 242 238 236 237 240 241 238 238 241 242 242 245 246 247 250 253 259 267 272 273 275 278 287 298 305 307 309 311 313 315 313 309 310 312 308 304 303 300 297 295 294 294 294 290 285 280 276 274 274 275 276 277 279 279 279 279 279 278 278 277 276
240 242 244 245 245 246 246 247 247 244 239 237 239 241 240 237 236 237 238 237 237 238 240 241 243 245 248 255 262 270 278 279 275 275 281 290 299 304 306 311 314 316 318 316 310 309 310 306 303 302 301 299 297 297 296 294 293 292 290 286 283 281 280 280 280 280 280 279 278 278 278 278 278 277
240 242 243 245 246 246 244 245 246 244 241 237 236 239 239 238 237 237 237 236 236 237 239 241 243 245 248 257 269 278 282 279 276 277 282 291 299 302 304 308 311 312 315 315 311 309 309 306 303 302 302 301 299 298 297 296 295 294 292 290 288 286 284 283 282 281 280 280 279 279 278 278 278 277
239 241 243 245 245 245 245 245 246 246 243 239 236 237 238 237 237 239 240 237 235 236 239 240 243 247 250 257 267 278 281 278 277 280 284 292 298 300 301 302 304 307 310 311 309 307 307 307 305 304 304 304 302 300 300 300 298 295 292 290 288 286 286 286 284 283 282 281 280 279 278 277 276 276
238 241 243 245 245 246 246 245 246 247 246 242 237 235 235 234 234 238 241 239 235 234 238 241 244 247 251 257 263 270 277 279 280 281 286 292 297 299 300 299 298 302 305 305 303 302 304 306 304 304 305 306 304 303 302 301 300 299 297 295 293 291 289 287 285 283 281 280 278 277 277 277 276 276
237 240 243 245 246 247 247 245 245 246 247 244 238 233 231 232 233 236 238 237 233 231 234 239 244 249 256 263 266 266 271 276 278 280 286 291 294 297 299 300 300 302 303 299 296 298 301 302 302 304 306 306 306 305 303 302 300 298 297 296 294 292 290 287 285 282 280 279 278 278 277 277 277 277
236 238 242 245 247 248 247 246 246 246 246 245 240 233 230 231 234 236 237 236 233 232 234 239 246 254 262 265 265 266 269 271 274 279 284 288 291 296 299 299 301 304 302 297 296 297 299 301 302 303 306 308 308 308 306 305 302 299 296 295 294 293 292 290 287 285 282 280 279 279 278 278 277 276
236 237 239 243 247 249 248 247 247 246 245 245 241 234 229 230 234 236 235 235 235 233 234 240 247 254 259 261 264 268 267 267 272 278 283 287 290 294 296 295 296 297 295 294 296 297 299 302 301 300 305 309 310 310 310 309 306 303 300 299 298 296 295 294 293 291 290 288 286 284 283 281 279 277
236 236 238 242 246 249 248 245 244 245 243 242 240 234 227 226 230 233 233 232 232 231 233 240 247 251 255 261 267 268 263 264 272 278 282 287 290 290 290 290 290 289 289 290 292 295 300 302 302 304 307 310 312 313 312 311 310 310 309 307 305 304 305 305 305 303 301 299 297 294 291 288 285 282
237 237 238 241 246 249 247 242 242 242 239 237 234 228 223 222 224 228 229 228 227 228 232 238 244 250 258 265 265 262 262 267 274 278 280 283 284 281 282 285 285 288 291 288 287 294 302 305 307 309 310 311 313 313 311 312 316 318 319 317 315 314 314 313 311 309 307 305 303 300 297 293 289 284
236 237 239 241 244 247 246 242 239 236 233 232 230 224 220 219 220 223 223 222 222 226 230 234 239 248 257 262 261 262 267 273 275 277 280 280 275 272 275 280 284 291 294 288 288 299 307 306 307 310 311 310 310 311 310 313 317 320 321 321 321 320 320 317 313 311 309 307 305 302 299 295 290 285
235 236 239 242 244 245 244 242 237 231 228 227 223 218 217 217 219 220 217 215 220 226 228 230 238 249 254 257 260 265 270 273 275 278 280 279 271 266 270 276 280 286 288 285 292 305 308 304 306 308 308 305 305 308 310 313 317 321 323 324 323 322 322 320 317 314 311 308 305 300 294 290 286 284
234 235 238 241 243 242 243 242 234 227 223 219 213 212 216 218 218 214 208 209 217 222 224 230 241 250 252 255 261 267 271 274 276 278 276 271 265 260 259 264 270 278 282 285 297 308 308 305 305 305 305 303 302 303 307 311 317 321 323 324 325 325 326 325 322 320 317 314 311 305 298 292 287 285
231 232 236 239 239 238 239 235 226 219 214 208 207 209 211 212 209 205 204 210 215 216 222 232 242 247 250 255 261 268 273 273 272 269 263 260 261 260 260 263 269 277 283 289 300 307 306 305 304 303 304 303 301 302 304 308 313 316 319 322 326 328 331 330 327 326 324 321 317 313 308 302 296 292
229 230 234 234 233 234 231 221 212 208 203 201 202 203 203 202 202 202 206 209 210 213 224 235 242 245 249 254 262 268 269 266 259 252 249 251 258 267 274 282 292 299 299 299 303 305 303 303 303 302 301 300 300 303 303 304 309 312 316 320 324 327 329 327 325 325 324 321 319 316 313 310 306 302
228 229 231 230 228 225 218 208 202 199 198 198 199 197 198 200 202 206 209 208 208 216 229 238 243 246 248 254 262 264 259 251 245 241 240 246 257 269 281 294 306 310 307 304 303 301 300 300 299 298 298 298 299 301 301 304 307 310 313 319 323 324 325 323 323 324 323 322 320 318 316 315 314 311
229 228 226 225 221 214 205 199 197 196 195 196 197 197 200 202 205 208 210 209 211 220 231 239 243 246 250 255 257 253 243 237 235 231 233 247 262 273 287 304 311 311 307 303 301 299 297 296 295 295 297 298 298 298 300 302 305 308 313 318 320 321 323 324 324 324 324 323 321 321 320 318 318 318
228 225 223 217 209 202 198 197 196 193 191 193 195 198 203 207 209 209 208 209 215 225 233 239 242 245 250 251 245 237 231 226 223 222 232 254 270 280 293 306 311 309 306 303 301 300 298 297 297 297 299 300 300 299 300 301 303 308 314 316 316 318 321 324 324 326 329 329 327 326 325 321 320 321
220 218 214 207 198 194 194 194 193 190 191 195 196 198 202 206 208 207 206 212 221 228 231 234 238 242 244 239 231 226 221 215 216 224 237 252 268 282 293 303 309 307 305 304 303 300 299 298 298 299 301 302 301 301 302 303 306 310 314 315 315 318 320 323 326 330 334 333 329 326 322 319 319 320
211 209 202 194 191 190 190 190 189 189 193 197 198 198 199 199 201 204 209 215 219 220 223 229 234 235 231 226 222 217 212 214 223 233 243 255 267 280 293 302 305 302 301 303 304 302 301 300 300 301 301 301 303 307 310 310 310 311 313 314 316 318 319 322 327 332 336 337 335 330 325 319 315 315
202 197 191 188 188 189 190 190 190 190 193 195 196 195 195 196 201 208 212 213 213 215 222 227 228 224 220 219 217 213 214 221 230 237 248 261 269 281 294 300 298 295 296 299 301 302 302 302 301 301 300 299 303 309 311 311 312 313 314 315 318 319 321 325 329 333 337 339 337 333 330 325 319 319
194 188 186 188 190 191 193 194 193 193 194 193 194 193 193 198 208 212 210 208 211 217 221 221 219 218 218 218 216 214 219 227 234 241 251 263 272 284 293 294 290 290 294 298 300 300 302 304 304 304 305 306 310 314 313 311 315 320 321 318 317 319 322 326 330 333 337 339 336 330 328 329 328 328
187 186 187 189 191 193 195 195 195 196 195 193 195 196 196 203 209 208 205 208 214 217 215 213 214 217 219 217 217 218 223 231 239 246 255 266 275 282 286 285 282 284 289 294 297 298 302 307 309 309 311 314 316 319 320 319 323 330 328 322 318 320 323 327 330 332 334 337 337 331 326 326 328 328
183 187 190 191 192 193 192 192 194 196 194 193 195 198 200 203 204 203 206 211 214 214 212 212 215 218 217 216 217 220 226 235 244 251 258 264 272 279 284 284 284 288 292 294 294 297 302 307 307 305 306 309 311 313 314 315 323 333 334 327 322 322 324 327 330 330 330 334 336 333 326 324 326 326
180 185 190 192 192 191 189 188 189 189 189 191 194 198 200 201 202 204 208 209 210 210 212 213 216 216 214 213 216 221 229 237 244 250 256 262 270 279 281 278 281 288 292 293 295 300 306 308 304 297 300 307 309 308 308 309 317 329 333 328 321 320 324 328 330 330 331 335 336 334 329 326 326 322
182 184 189 191 189 186 183 183 183 183 185 189 193 196 198 201 205 207 206 205 206 209 211 213 214 213 213 214 216 222 231 238 241 245 252 261 269 275 272 270 276 284 289 293 299 305 309 308 301 293 296 303 306 307 310 310 312 320 327 324 317 318 326 330 330 330 333 336 336 333 331 329 324 318
184 184 187 188 185 181 178 178 179 181 184 190 193 196 200 205 207 204 201 201 206 209 211 213 213 214 216 217 219 224 232 237 240 244 252 259 264 267 265 268 276 282 288 296 301 305 307 303 292 289 296 301 304 306 308 309 312 321 328 326 319 323 329 332 332 332 334 337 336 333 330 326 321 320
182 181 185 186 183 179 176 176 179 183 187 190 194 199 205 208 205 201 199 203 207 209 211 214 216 218 221 222 223 226 229 235 241 248 253 252 252 257 261 266 277 284 290 299 302 302 302 295 289 292 300 304 307 310 310 312 317 325 329 325 320 323 329 332 334 335 336 337 338 335 331 325 322 323
178 179 183 184 182 178 176 177 182 186 189 192 197 202 205 204 202 201 201 204 205 206 210 216 219 223 226 228 228 225 225 235 246 251 249 242 243 258 269 274 282 290 294 301 303 300 298 296 297 302 307 310 314 315 315 316 318 320 322 320 318 322 329 332 335 336 338 340 341 339 335 332 329 328
178 179 180 179 178 178 178 180 184 187 189 193 197 199 199 199 200 200 199 199 200 203 210 217 221 225 229 230 228 225 228 240 248 244 236 228 233 255 276 284 288 290 295 300 300 299 302 304 307 311 313 315 318 317 313 314 317 319 322 322 319 321 327 331 333 336 339 343 344 341 337 334 331 329
176 176 175 175 178 181 181 183 186 189 190 192 193 194 195 197 198 196 196 198 200 204 211 218 221 224 225 225 227 231 236 240 237 230 223 222 224 236 258 274 282 287 294 300 301 304 308 310 310 313 315 314 314 313 311 315 320 321 321 320 320 322 327 331 334 337 342 346 347 344 340 335 331 328
173 174 174 175 177 179 181 184 186 187 189 190 190 192 194 195 194 195 197 201 203 207 214 220 221 221 222 225 232 238 237 230 224 222 223 226 234 244 256 269 282 289 295 301 305 308 309 307 305 309 312 310 309 309 312 318 324 326 325 323 323 324 328 332 336 339 344 347 347 345 344 341 337 335
173 176 176 176 177 179 181 183 183 184 187 189 188 188 189 189 191 195 198 202 205 209 214 217 218 219 223 228 232 232 228 225 225 227 226 228 238 254 268 277 285 291 296 302 305 306 306 305 305 306 307 308 308 310 314 321 327 329 328 325 323 325 331 336 339 340 342 345 345 345 347 345 340 340